User: anonymous   Login
Location: La Comballaz
(46.3780°N, 7.0817°E)
Time: 17:30:35
(UTC+00:00)
Language:

POLYITAN 1 - Orbit

View from above orbital plane
View from above orbital plane
View from above satellite
View from above satellite

Ground track
Ground track

The orbit data is extracted from the following two-line orbital elements,

1 40042U 14033AJ  22333.70208027  .00002874  00000-0  29173-3 0  9996
2 40042  97.9869 274.0174 0012585 221.0219 139.0053 14.91615194458271
Epoch (UTC): 29 November 2022 16:50:59
Eccentricity: 0.0012585
inclination: 97.9869°
perigee height: 584 km
apogee height: 601 km
right ascension of ascending node: 274.0174°
argument of perigee: 221.0219°
revolutions per day: 14.91615194
mean anomaly at epoch: 139.0053°
orbit number at epoch: 45827

The dashed part of the orbit path shows where the satellite is in the earth's shadow,  

DLR